Weather History for KBKE - December, 2013

Change the Weather History Date:

Saturday, December 7, 2013

  Actual Average Record
Temperature  
Mean Temperature 3 °F 26 °F  
Max Temperature 15 °F 35 °F 50 °F (1981)
Min Temperature -9 °F 17 °F -9 °F (2013)
Degree Days  
Heating Degree Days 62 39  
Month to date heating degree days 323 269  
Since 1 July heating degree days 2248 2306  
Cooling Degree Days 0 0  
Month to date cooling degree days 0 0  
Year to date cooling degree days 258 169  
Moisture  
Dew Point 2 °F    
Average Humidity 75    
Maximum Humidity 92    
Minimum Humidity 58    
Precipitation  
Precipitation T in 0.04 in 0.39 in (1973)
Month to date precipitation 0.10 0.23  
Year to date precipitation 8.41 9.38  
Sea Level Pressure  
Sea Level Pressure 30.07 in    
Wind  
Wind Speed 15 mph (NW)    
Max Wind Speed 26 mph    
Max Gust Speed 33 mph    
Visibility 8 miles    
Events Snow    
T = Trace of Precipitation, MM = Missing Value Source: NWS Daily Summary

Daily Weather History Graph

Daily Weather History Graph

Search for Another Location

Airport or City:

Trip Planner

Search our weather history database for the weather conditions in past years. The results will help you decide how hot, cold, wet, or windy it might be!

Date:

Astronomy

Dec. 07, 2013 Rise Set
Actual Time 7:15 AM PST 4:10 PM PST
Civil Twilight 6:42 AM PST 4:43 PM PST
Nautical Twilight 6:05 AM PST 5:20 PM PST
Astronomical Twilight 5:29 AM PST 5:55 PM PST
Moon 10:54 AM PST (12/7) 10:07 PM PST (12/7)
Length of Visible Light 10h 01m
Length of Day
8h 54m
Waxing Crescent, 30% of the Moon is Illuminated
Dec 7
Waxing Crescent
Dec 9
First Quarter
Dec 17
Full
Dec 25
Last Quarter
Jan 1
New

Hourly Weather History & Observations

Time (PST) Temp. Windchill Dew Point Humidity Pressure Visibility Wind Dir Wind Speed Gust Speed Precip Events Conditions
12:01 AM 15.1 °F 4.2 °F 12.0 °F 88% 29.83 in 2.5 mi NW 8.1 mph - 0.01 in Snow Light Snow
12:17 AM 14.0 °F 0.5 °F 10.9 °F 88% 29.83 in 1.5 mi NW 11.5 mph - 0.01 in Snow Light Snow
12:28 AM 12.9 °F -1.6 °F 10.0 °F 88% 29.83 in 2.5 mi NW 12.7 mph - 0.01 in Snow Light Snow
12:53 AM 12.9 °F -2.2 °F 10.0 °F 88% 29.96 in 1.8 mi NW 13.8 mph - 0.01 in Snow Light Snow
1:53 AM 12.9 °F -1.6 °F 10.0 °F 88% 29.97 in 1.8 mi NW 12.7 mph - 0.00 in Snow Light Snow
2:03 AM 12.9 °F -2.8 °F 10.0 °F 88% 29.83 in 2.0 mi NW 15.0 mph - 0.00 in Snow Light Snow
2:33 AM 12.9 °F -2.2 °F 9.0 °F 84% 29.83 in 4.0 mi NW 13.8 mph - 0.00 in Snow Light Snow
2:49 AM 12.2 °F -3.7 °F 8.6 °F 85% 29.83 in 6.0 mi NW 15.0 mph - 0.00 in Snow Light Snow
2:53 AM 12.0 °F -4.0 °F 8.1 °F 84% 29.97 in 6.0 mi NW 15.0 mph - 0.00 in   Overcast
3:53 AM 10.9 °F -7.0 °F 7.0 °F 84% 29.96 in 10.0 mi NW 18.4 mph 25.3 mph N/A   Overcast
4:53 AM 10.9 °F -5.9 °F 7.0 °F 84% 29.97 in 10.0 mi NW 16.1 mph - N/A   Overcast
5:53 AM 10.9 °F -5.9 °F 5.0 °F 77% 29.99 in 10.0 mi NW 16.1 mph - N/A   Overcast
6:53 AM 10.0 °F -6.5 °F 3.9 °F 76% 30.02 in 10.0 mi WNW 15.0 mph - 0.00 in   Overcast
7:20 AM 10.9 °F -3.4 °F 3.9 °F 73% 29.89 in 10.0 mi WNW 11.5 mph - N/A   Overcast
7:53 AM 10.9 °F -3.4 °F 3.0 °F 70% 30.04 in 10.0 mi NW 11.5 mph - N/A   Overcast
8:53 AM 10.0 °F -5.2 °F 3.0 °F 73% 30.08 in 10.0 mi NW 12.7 mph - N/A   Overcast
9:43 AM 10.9 °F -7.0 °F 3.0 °F 70% 29.95 in 10.0 mi NW 18.4 mph - N/A   Scattered Clouds
9:53 AM 12.0 °F -6.5 °F 3.9 °F 70% 30.10 in 10.0 mi NNW 20.7 mph 27.6 mph N/A   Partly Cloudy
10:24 AM 12.0 °F -5.6 °F 3.0 °F 67% 29.96 in 10.0 mi NW 18.4 mph 26.5 mph N/A   Mostly Cloudy
10:53 AM 12.0 °F -6.0 °F 3.0 °F 67% 30.11 in 10.0 mi NNW 19.6 mph - N/A   Scattered Clouds
11:53 AM 12.9 °F -4.9 °F 3.0 °F 65% 30.11 in 10.0 mi NW 19.6 mph 28.8 mph N/A   Scattered Clouds
12:53 PM 12.0 °F -7.7 °F 1.0 °F 61% 30.12 in 10.0 mi NW 24.2 mph 29.9 mph N/A   Clear
1:53 PM 10.9 °F -8.3 °F -0.0 °F 61% 30.14 in 10.0 mi NW 21.9 mph 31.1 mph N/A   Clear
2:53 PM 10.0 °F -8.6 °F -2.0 °F 58% 30.18 in 10.0 mi NNW 19.6 mph - N/A   Clear
3:53 PM 7.0 °F -11.0 °F -4.0 °F 61% 30.22 in 10.0 mi North 16.1 mph - N/A   Clear
4:53 PM 3.9 °F -16.1 °F -6.0 °F 64% 30.24 in 10.0 mi NW 18.4 mph - N/A   Clear
5:53 PM 3.0 °F -17.8 °F -7.1 °F 63% 30.27 in 10.0 mi NNW 19.6 mph - N/A   Clear
6:53 PM -0.0 °F -11.6 °F -8.0 °F 69% 30.32 in 10.0 mi SW 5.8 mph - N/A   Unknown
7:53 PM -0.0 °F -11.6 °F -9.0 °F 66% 30.33 in 10.0 mi Variable 5.8 mph - N/A   Clear
8:53 PM -2.0 °F -16.6 °F -9.9 °F 69% 30.35 in 10.0 mi SW 8.1 mph - N/A   Clear
9:53 PM -2.0 °F -16.6 °F -11.0 °F 66% 30.36 in 10.0 mi WNW 8.1 mph - N/A   Clear
10:53 PM -8.0 °F -23.9 °F -13.0 °F 79% 30.38 in 10.0 mi South 8.1 mph - N/A   Clear
11:53 PM -8.0 °F -16.9 °F -13.0 °F 79% 30.38 in 10.0 mi WSW 3.5 mph - N/A   Clear